Showing default

CENTISPACE-1 S13, 62582

Orbit data source: Space-Track

CENTISPACE-1 S13, 62582 is a payload satellite owned by Centispace (CN) in LEO that was launched on Mon, 13 Jan 2025 UTC via a JIELONG-3 launch vehicle from the Yellow Sea Launch Area, China (YSLA). Payload-class satellites include a variety of spacecraft equipped with specific instruments for various scientific and technological missions. These include communications satellites like Starlink; space stations such as the ISS; scientific satellites like the Hubble; Earth observation satellites from companies like Planet Labs, Umbra, and HawkEye 360; GPS; miniature CubeSats for education and research; and military/defense satellites.

Loading next visibility...
Identifier
62582, 2025-007H
Orbit
LEO
Country
Flag of CNCN / PRC
Related business
Manufacturer
DFH Shenzhen
Mission
Operational Commercial Nav/Com
Bus & Motor
WK01, Unknown motor
Mass
140 kg wet, 140 kg dry
Launch date (UTC)
2025-01-13 (10 months ago)
Launch vehicle
JIELONG-3
Launch site
Yellow Sea Launch Area, China (YSLA)
Object type
Payload
Rocket body
Debris
Shape & HBR
Box + 2 Pan, 1.0 m
Radar Cross Section
0.833 m², Medium (>0.1 m² and < 1m²)

Expand to show TLE details & history
Last TLE update: 3 days ago

TLE from 3 days ago
0 CENTISPACE-1 S13
1 62582U 25007H   25302.77031853  .00000197  00000-0  11093-3 0  9997
2 62582  54.9873  41.3276 0056125  80.4870 280.2451 14.40685974 42501
Epoch: 2025-10-29T18:29Z
TLE epoch observation values (Epoch: 2025-10-29T18:29:15.520Z)
Latitude
-0.00004°
Longitude
85.67422°
Altitude
750.38 km
Speed
7.484 km/s
True Right ascension
02h 45m 18s
True Declination
0° 00' 00"
Sunlit
Object was in full shadow at epoch
Visualization orbit readout
Latitude
Unknown
Longitude
Unknown
Altitude
Unknown
Speed
Unknown
Apparent Right ascension
Unknown
Apparent Declination
Unknown
Sunlit
N/A
Visualization observer readout
Local Sidereal Time
09:14:28
Azimuth
Unknown
Elevation
Unknown
Doppler factor
Unknown
Orbital elements
Apogee altitude
796.24 km
Perigee altitude
716.158 km
Semi-major axis
7,134.336 km
Eccentricity
0.00561
Inclination
54.9873°
RAAN
41.3276°
Arg. of periapsis
80.487°
True anomaly
279.61143°
Mean anomaly
280.2451°
Eccentric anomaly
279.92834°
Mean motion
3.60174 °/min
Orbital period
99.95 mins
BSTAR
0.00011093
Loading maneuver chart data...
Computing Atmospheric mass density...
Loading historical data...
Loading historical data...
Loading historical data...
Loading historical data...
Loading historical data...
Loading historical data...
Loading historical data...

Documentation

Showing up to 5 results
|